Find Starlink 35958

NORAD ID: 66822 Int'l Des: 2025-280 Owner: SPXS Country: US Constellation: starlink operational
LEOCIRCULAR

当前视图

正在加载3D地球...

关于 Starlink 35958

正在加载描述...

即将过境

Passes for default location (London). Set your location on the main map for personalized predictions.

高度历史

Loading altitude history...

两行轨道根数

1 66822U 25280B 26146.24777963 .00002722 00000-0 23583-3 0 9992
2 66822 70.0003 138.8937 0003935 263.3592 96.7119 14.98333349 27699
Epoch: May 26, 2026 • Age: 12 hours

当前状态

高度 588.3 km
速度 7.57 km/s
星下点 -49.77°S, 174.45°W
发射日期 Dec 2, 2025
运行时间 0.4 years
类型 internet

技术详情

分类 Payload
质量 575.00 kg
干质量 530.00 kg
总质量 575.00 kg
长度 0.30 m
直径 4.10 m
跨度 29.00 m
形状 Box + pan
制造商 SPXS
平台类型 Starlink V2MO
阶段状态 In Orbit
所有者/国家 SPXS/US

Most Searched